User: anonymous   Login
Location: Unspecified
(0.0000°N, 0.0000°E)
Time: 01:01:28
(UTC+02:00)
Language:

CZ-4B R/B - Orbit

View from above orbital plane
View from above orbital plane
View from above satellite
View from above satellite

Ground track
Ground track

The orbit data is extracted from the following two-line orbital elements,

1 33410U 08053C   16209.48269613  .00000096  00000-0  12202-4 0  9990
2 33410  97.6848 178.0488 0120474 199.9185 159.7313 14.97796329422173
Epoch (UTC): 27 July 2016 11:35:04
Eccentricity: 0.0120474
inclination: 97.6848°
perigee height: 490 km
apogee height: 657 km
right ascension of ascending node: 178.0488°
argument of perigee: 199.9185°
revolutions per day: 14.97796329
mean anomaly at epoch: 159.7313°
orbit number at epoch: 42217

The dashed part of the orbit path shows where the satellite is in the earth's shadow,  

DLR